Starlink 30771

operational
NORAD ID: 58169 Int'l Des: 2023-166 Owner: SPXS Country: US Constellation: starlink
LEOCIRCULAR

Starlink 30771について

説明を読み込み中...

リアルタイム位置

3D地球を読み込み中...

次回通過

高度履歴

Altitude vs Time

uPlot chart will show altitude changes over time

軌道要素

1 58169U 23166V 25304.84304787 -.00001160 00000-0 -27055-4 0 9995
2 58169 53.1599 97.9975 0000945 71.5927 288.5177 15.30183650113452
Epoch: Oct 31, 2025 • Age: 29 hours

現在のステータス

高度 493.4 km
速度 7.62 km/s
衛星直下点 -50.79°S, 40.61°W
打ち上げ日 Oct 29, 2023
運用期間 2 years
タイプ internet

技術仕様

分類 Payload
質量 730.00 kg
乾燥質量 700.00 kg
総質量 730.00 kg
長さ 0.30 m
直径 4.10 m
スパン 29.00 m
形状 Box + pan
製造者 SPXS
バスタイプ Starlink V2M
フェーズステータス In Orbit
所有者/国 SPXS/US

大規模コンステレーション

Loading constellations...